Overview Statistics Trail Chart Weather Telemetry Raw packets
 

This is the latest recevied weather packets stored in our database for station/object W4UWO. If no packets are shown the sender has not sent any weather packets the latest 10 day(s).

<< 59 60 61 62 63 64 65 >>
Time Temp. Humidity Pressure Rain* Wind** Luminosity Snow
1788214016 36.67° C 41% 1019.2 hPa 0 mm - 336 W/m² -
1788213711 35° C 42% 1019.1 hPa 0 mm - 333 W/m² -
1788213406 35.56° C 42% 1019.1 hPa 0 mm - 128 W/m² -
1788213102 35° C 42% 1019.2 hPa 0 mm - 371 W/m² -
1788212799 35.56° C 42% 1019.1 hPa 0 mm - 391 W/m² -
1788212495 35.56° C 42% 1019.3 hPa 0 mm - 399 W/m² -
1788212192 35.56° C 41% 1019.2 hPa 0 mm - 399 W/m² -
1788211886 36.11° C 41% 1019.1 hPa 0 mm - 418 W/m² -
1788211583 36.11° C 40% 1019.3 hPa 0 mm - 447 W/m² -
1788211297 35.56° C 41% 1019.3 hPa 0 mm - 479 W/m² -
1788210978 35.56° C 43% 1019.5 hPa 0 mm - 489 W/m² -
1788210678 35° C 43% 1019.5 hPa 0 mm - 492 W/m² -
1788210386 34.44° C 44% 1019.6 hPa 0 mm - 487 W/m² -
1788210069 34.44° C 45% 1019.6 hPa 0 mm - 413 W/m² -
1788209768 34.44° C 46% 1019.4 hPa 0 mm - 212 W/m² -
1788209470 35° C 44% 1019.4 hPa 0 mm - 111 W/m² -
1788209159 34.44° C 43% 1019.7 hPa 0 mm - 158 W/m² -
1788208857 33.89° C 44% 1019.6 hPa 0 mm - 626 W/m² -
1788208552 34.44° C 44% 1019.6 hPa 0 mm - 146 W/m² -
1788208252 35° C 43% 1019.6 hPa 0 mm - 152 W/m² -
1788207951 35.56° C 42% 1019.6 hPa 0 mm - 143 W/m² -
1788207650 36.67° C 41% 1019.8 hPa 0 mm - 680 W/m² -
1788207349 36.67° C 41% 1019.9 hPa 0 mm - 707 W/m² -
1788207045 36.11° C 41% 1019.8 hPa 0 mm - 713 W/m² -
1788206741 35.56° C 43% 1019.9 hPa 0 mm - 719 W/m² -

* Rain latest hour (hover to see other rain measurements)
** Current wind speed in m/s (hover to see current wind gust speed)